Location: Dötzum
(52.0808°N, 9.8063°E)
Time: 05:37:37
(UTC+00:00)

Cosmos 332 Rocket - Pass Details

Date: 27 May 2022
Orbit: 681 x 703 km, 74.0° (Epoch: 24 June)

Event Time Altitude Azimuth Distance (km) Brightness Sun altitude
Exits shadow 01:08:19 18° 220° (SW) 1,641 5.1 -12.8°
Maximum altitude 01:11:48 64° 299° (WNW) 760 4.0 -12.5°
Drops below altitude 10° 01:16:34 10° 21° (NNE) 2,137 7.8 -12.2°
Sets 01:18:55 0° 24° (NNE) 3,058 9.2 -12.0°
